Weather in Oktyabr'skiy

Russia / Yaroslavl Oblast     57°59′07″N   39°06′36″E
temp.,
°C
wind,
m/s
gust,
m/s
humid.,
%
clouds,
%
prec.,
mm/h
press.,
hPa
HPBL,
m
13 may, thu
thu1300:00+13n119585 1.8 102112
03:00+13ese26965 1.8 1020109
06:00+13se38936 0.0 1020313
09:00+16sse488092 0.0 1020895
12:00+16sse37798 0.2 1020630
15:00+20ese46559 0.2 10171643
18:00+14s6995100 10.7 1015447
21:00+12sse2396100 23.7 101677
14 may, fri
fri1400:00+10sse24964 0.0 101680
03:00+9sse2496100 0.0 101771
06:00+11sse279478 0.0 1017222
09:00+14sse3683100 0.0 1017504
12:00+19s4655100 0.1 10171639
15:00+20sse4753100 0.1 10161811
18:00+18sse388269 1.7 1015485
21:00+13ese399694 3.4 1014189
15 may, sat
sat1500:00+14ese51297100 5.1 1013435
03:00+14se41197100 5.4 1011357
06:00+15sse51495100 0.3 1011514
09:00+17sse51284100 0.4 1010591
12:00+21s51172100 0.4 10091264
15:00+21s51171100 0.9 10081379
18:00+19ssw5108194 0.8 1007985
21:00+15ssw412860 1.1 1008415
16 may, sun
sun1600:00+14ssw412883 0.0 1009523
03:00+12ssw311945 0.0 1010369
06:00+13ssw41090100 0.0 1012366
09:00+18sw36695 0.0 1012768
12:00+20ssw346378 0.8 10121237
15:00+18s3680100 6.0 1012707
18:00+15nw359199 4.3 1012230
21:00+12wsw22957 4.4 101434
17 may, mon
mon1700:00+11wsw11935 0.0 101510
03:00+11sse11933 0.0 101610
06:00+13ese129399 0.0 101787
09:00+17se348097 0.0 1018440
12:00+21se3461100 0.0 10181251
15:00+22ese445896 0.0 10171420
18:00+20ese366987 0.0 1016773
21:00+15e399073 0.0 1016188